Wind_Speed
22 21 26 23 15 7 6 7 3 4 4 8 5 7 2 3 3 7 6 6 10 4 7 10 11 10 8 10 13 13 10 12 13 9 7 8 8 8 9 12 15 34 31 24
22 28 24 19 12 9 9 12 11 3 3 7 5 8 5 4 3 6 7 9 7 7 8 9 10 11 11 9 7 7 7 9 9 9 10 10 11 10 10 14 19 26 12 14
27 23 23 23 16 12 15 17 3 5 6 11 11 8 9 8 2 7 9 10 9 11 8 8 9 11 12 10 8 7 6 5 2 5 7 7 10 12 10 15 17 17 13 4
25 22 23 24 19 18 22 13 8 7 12 3 14 7 16 8 3 6 10 11 11 11 11 10 9 6 10 11 9 9 9 7 5 5 6 6 8 8 11 14 14 14 13 13
24 25 24 24 24 21 19 6 8 9 15 13 11 11 13 8 3 7 9 11 12 10 9 8 10 11 9 2 7 8 7 9 6 4 4 4 5 7 9 11 13 16 17 18
23 20 20 26 22 22 17 10 11 14 17 18 15 10 13 2 5 2 7 13 13 10 9 10 10 12 10 2 3 5 6 5 5 3 2 2 4 6 8 10 13 16 19 21
23 21 23 21 24 21 19 17 23 17 16 13 17 5 4 8 3 1 7 13 14 13 10 10 11 11 6 5 5 4 4 4 4 4 2 2 4 7 9 12 16 18 15 18
23 25 22 23 28 23 23 25 26 11 8 7 13 3 6 2 2 4 8 13 14 12 11 9 10 9 8 7 6 6 5 5 5 4 4 3 5 9 14 18 18 16 16 19
22 25 22 21 23 24 25 25 25 27 25 23 10 7 6 7 2 4 9 15 16 14 9 10 10 10 7 6 7 8 8 8 7 7 6 6 8 12 14 16 15 16 16 16
15 18 24 24 19 25 23 15 17 17 10 6 11 6 5 6 4 5 12 17 17 15 11 10 10 8 8 9 9 8 9 10 9 8 6 7 12 15 15 13 14 14 16 17
21 16 20 21 24 23 23 15 15 13 11 10 8 15 1 2 4 7 13 17 18 16 12 11 11 10 9 9 8 8 11 11 10 9 7 7 10 11 11 13 17 20 21 21
27 14 23 22 22 26 23 22 22 17 14 16 15 7 10 0 2 6 11 16 18 15 14 13 12 12 9 6 5 7 11 11 12 9 5 6 12 15 10 12 14 17 19 23
28 20 23 18 26 26 20 19 18 19 21 6 26 11 11 5 2 6 8 15 19 18 17 15 15 14 7 6 4 8 9 12 11 9 9 11 14 14 11 14 17 19 20 25
28 24 27 25 28 24 26 23 18 21 22 7 18 9 13 12 7 6 8 13 18 19 21 17 18 13 10 9 9 9 10 11 12 9 12 12 10 14 16 16 15 18 23 27
30 28 26 4 1 20 22 20 17 20 3 10 4 16 20 7 5 2 7 13 17 19 19 19 15 14 11 10 10 10 8 9 13 14 16 11 13 16 17 17 18 21 25 25
31 28 26 9 15 11 17 14 9 15 14 10 16 21 5 6 5 2 3 9 15 16 17 19 16 14 13 12 9 8 7 9 12 15 13 13 14 16 20 21 22 25 25 27
29 32 26 19 16 16 16 15 15 11 10 9 11 6 3 3 2 1 3 4 12 17 20 21 15 15 16 12 9 8 6 8 10 12 14 16 19 20 22 24 26 29 28 31
27 30 28 24 22 18 15 14 21 16 12 10 11 13 9 2 6 11 11 9 9 21 23 24 17 17 16 15 13 6 7 7 10 14 17 20 22 24 25 28 29 29 28 28
24 31 26 27 9 18 20 15 14 10 14 11 12 12 7 4 11 12 13 13 8 16 18 17 23 27 23 16 14 12 11 8 11 15 19 22 22 26 29 30 32 31 28 27
25 27 32 27 23 15 23 24 19 14 12 12 13 8 9 8 11 14 15 14 17 14 13 22 30 26 22 16 16 13 12 8 15 15 19 23 26 30 33 32 28 27 27 28
19 23 33 22 24 18 4 11 11 12 7 7 3 5 8 11 15 16 16 16 16 11 9 17 23 20 17 22 25 15 10 10 16 19 21 25 29 28 29 28 27 27 26 26
19 21 23 27 24 7 11 11 7 6 2 2 4 3 12 12 14 15 15 14 10 4 6 16 22 23 24 29 19 27 16 10 14 18 22 26 27 25 26 26 26 25 24 24
6 2 9 9 5 15 4 7 5 4 7 9 9 14 11 12 12 11 10 7 4 3 8 16 22 22 15 16 20 9 10 14 16 20 24 27 25 23 22 22 22 22 23 23
4 10 5 7 16 5 2 5 9 9 6 5 7 9 12 12 10 7 2 0 2 4 6 12 14 11 10 9 7 11 13 14 19 24 28 26 24 21 20 20 22 23 24 25
4 8 8 8 12 8 11 6 4 5 7 8 11 12 13 7 6 3 7 6 4 5 6 6 4 7 9 10 10 9 13 19 24 27 27 24 22 21 22 23 24 25 26 28
9 8 10 8 3 5 8 9 8 9 10 10 14 14 13 10 2 7 4 4 6 7 7 7 9 11 10 10 10 13 18 24 27 28 24 21 22 23 24 26 28 28 27 28
Wind_Direction
218 215 217 220 225 233 257 270 273 211 260 286 277 275 314 269 208 207 216 202 211 213 229 222 223 211 228 262 263 273 241 235 227 236 245 258 286 287 297 298 312 317 291 262
213 219 215 223 237 237 227 241 250 222 229 276 258 262 226 259 241 212 208 216 220 219 210 221 234 228 239 256 266 252 233 227 229 247 258 264 271 289 289 310 314 349 323 242
216 219 217 219 219 220 230 240 214 285 294 257 261 268 243 212 247 210 208 210 214 215 216 229 218 234 239 257 267 242 236 220 228 252 264 263 271 282 306 316 313 337 7 330
222 217 212 224 227 209 239 236 244 268 267 249 262 206 234 179 219 212 205 207 207 214 209 208 226 230 240 255 262 259 247 240 254 274 282 273 283 286 303 310 317 327 336 318
222 217 224 217 216 217 244 225 251 252 257 252 197 272 171 188 180 214 197 211 199 213 211 202 195 223 219 221 266 275 258 242 248 266 303 275 294 294 301 308 319 324 319 314
226 219 217 216 214 220 236 246 242 238 252 263 127 250 65 141 59 101 206 199 198 196 197 196 196 205 198 157 222 249 255 247 226 225 221 245 294 295 301 309 311 312 319 317
220 225 218 212 217 215 218 226 236 225 220 239 173 202 185 184 40 332 224 198 192 186 191 196 194 190 182 173 180 192 233 236 219 214 228 298 304 305 306 309 308 314 317 317
210 214 214 209 215 213 214 227 242 212 266 47 328 258 157 295 348 291 208 199 187 182 189 190 191 200 196 183 186 190 204 228 232 230 231 252 297 315 318 321 318 327 334 330
206 225 208 211 209 215 216 224 244 282 211 246 223 153 215 169 168 307 194 191 189 186 183 186 186 202 220 212 218 214 219 232 244 254 275 298 312 322 325 328 329 336 337 335
237 216 216 210 213 222 227 255 233 247 274 266 267 235 143 169 198 198 195 191 192 191 179 177 186 209 226 229 232 239 244 246 244 250 255 293 329 340 341 352 351 352 347 344
221 232 193 201 205 212 212 232 250 252 257 291 245 45 35 200 196 216 204 191 192 192 178 180 183 205 222 231 242 263 266 265 252 244 257 316 331 343 360 21 13 3 358 355
208 229 219 206 210 209 208 217 234 227 228 250 283 89 198 184 190 195 204 195 197 197 193 184 190 211 243 254 265 276 277 271 257 240 258 312 337 347 11 26 8 3 9 2
201 225 234 188 212 209 225 226 237 240 246 125 270 161 189 333 158 164 170 198 197 202 200 202 217 230 227 241 266 299 276 263 244 233 279 326 346 352 338 326 337 342 347 348
203 217 231 195 194 202 215 228 235 242 254 29 13 22 175 170 163 152 162 205 203 205 209 205 230 240 230 262 300 302 288 278 237 260 293 310 328 339 339 339 335 336 338 339
201 218 228 263 266 213 208 240 217 236 187 6 289 258 293 95 105 104 201 196 201 210 211 216 217 237 245 261 299 308 289 255 247 284 290 294 323 335 331 325 328 335 336 333
205 219 225 181 205 218 189 211 286 216 253 181 178 222 143 83 45 360 340 202 204 209 216 221 211 224 238 251 281 284 263 241 257 274 268 293 308 319 325 327 324 328 330 327
204 211 220 217 212 219 228 228 224 226 233 262 268 96 265 360 77 265 234 226 206 213 209 219 210 228 235 247 247 254 243 241 262 264 285 295 307 312 317 323 322 325 322 319
199 204 213 234 216 223 226 231 225 227 236 264 272 275 310 181 290 286 290 291 208 219 221 222 220 234 236 244 233 240 252 240 245 267 280 296 303 306 310 311 314 314 311 314
198 200 215 218 281 221 222 218 223 231 256 264 260 247 263 266 299 290 285 292 275 275 292 230 221 228 224 231 217 214 218 232 260 279 288 293 297 301 302 304 307 307 309 309
204 204 214 227 211 223 218 228 220 225 244 263 263 244 256 255 268 243 271 293 301 302 269 239 225 221 214 219 215 211 207 235 271 283 287 292 295 299 301 306 308 309 310 310
204 204 211 219 227 217 130 204 172 199 228 232 232 242 242 241 242 260 278 288 287 275 247 228 219 220 229 235 281 252 253 289 264 282 289 297 300 303 307 311 309 310 311 312
187 205 216 227 231 167 181 216 221 217 269 285 275 246 228 249 251 265 277 277 273 248 195 214 213 226 240 274 263 271 250 264 284 296 306 310 308 307 307 308 308 310 313 315
191 180 338 21 142 191 214 153 221 254 261 258 250 261 257 254 247 246 247 247 250 196 208 217 229 253 252 277 268 214 253 274 287 301 311 311 304 304 305 309 313 316 320 322
279 316 82 233 334 102 295 289 289 268 223 206 188 221 233 222 202 196 161 196 274 249 249 256 258 242 239 209 209 246 266 286 301 306 311 310 310 311 316 317 319 322 324 322
318 337 328 294 277 285 292 284 272 217 196 186 188 172 189 198 196 273 308 257 250 223 214 210 172 157 196 215 240 268 295 302 305 309 312 313 313 315 317 319 320 322 324 324
235 311 299 340 317 284 276 268 242 207 191 187 192 189 180 188 245 281 196 190 215 209 211 202 190 200 217 245 270 285 295 302 308 311 312 313 313 316 320 322 323 319 319 320
Height
3188 3192 3190 3188 3188 3193 3192 3189 3189 3190 3194 3195 3191 3191 3191 3194 3195 3196 3196 3196 3195 3197 3197 3195 3193 3193 3192 3190 3189 3187 3188 3190 3191 3192 3192 3192 3192 3192 3192 3192 3192 3189 3184 3185
3187 3185 3187 3187 3188 3189 3191 3190 3187 3188 3191 3193 3189 3190 3190 3192 3193 3194 3195 3195 3196 3195 3196 3194 3191 3191 3190 3190 3189 3189 3188 3188 3189 3190 3190 3191 3191 3192 3191 3191 3190 3183 3175 3181
3180 3181 3184 3184 3185 3190 3189 3186 3189 3188 3189 3188 3187 3189 3188 3188 3189 3190 3191 3193 3194 3194 3194 3193 3191 3189 3189 3189 3188 3188 3188 3188 3189 3190 3189 3189 3190 3190 3190 3189 3187 3184 3181 3181
3177 3179 3181 3181 3184 3188 3182 3185 3185 3188 3187 3184 3185 3183 3184 3182 3185 3185 3188 3190 3191 3191 3192 3193 3191 3189 3188 3188 3188 3188 3188 3188 3188 3189 3189 3188 3188 3189 3189 3187 3185 3183 3181 3180
3174 3175 3176 3177 3182 3183 3182 3186 3186 3186 3183 3177 3178 3176 3177 3181 3180 3182 3185 3187 3189 3190 3191 3191 3193 3191 3188 3186 3187 3188 3188 3188 3187 3188 3188 3188 3188 3188 3187 3186 3183 3181 3179 3177
3170 3172 3174 3177 3180 3181 3182 3185 3185 3183 3178 3173 3174 3177 3176 3187 3179 3181 3182 3184 3186 3189 3190 3190 3191 3189 3188 3186 3187 3187 3188 3188 3187 3186 3186 3186 3186 3186 3184 3184 3182 3180 3176 3173
3169 3167 3171 3174 3176 3178 3182 3183 3175 3173 3167 3162 3165 3170 3172 3177 3178 3180 3181 3183 3185 3187 3188 3188 3186 3186 3187 3186 3186 3187 3187 3188 3187 3187 3186 3185 3185 3185 3184 3182 3179 3177 3174 3171
3162 3164 3166 3169 3171 3172 3177 3176 3168 3164 3165 3165 3174 3166 3168 3174 3176 3177 3179 3181 3184 3185 3186 3187 3186 3185 3186 3186 3187 3186 3187 3187 3187 3186 3186 3186 3185 3184 3181 3178 3177 3173 3169 3166
3156 3159 3162 3166 3169 3171 3170 3172 3166 3162 3163 3159 3157 3161 3166 3170 3173 3174 3177 3179 3182 3184 3185 3186 3185 3185 3185 3185 3186 3186 3186 3187 3187 3187 3186 3185 3184 3181 3179 3176 3173 3169 3166 3163
3153 3155 3156 3161 3166 3167 3167 3167 3166 3162 3159 3159 3158 3159 3160 3168 3170 3172 3175 3178 3180 3182 3183 3184 3185 3184 3185 3184 3184 3185 3185 3186 3185 3185 3185 3184 3183 3180 3177 3173 3170 3168 3165 3163
3153 3152 3153 3158 3161 3162 3166 3165 3162 3161 3164 3158 3155 3166 3165 3168 3168 3169 3173 3176 3179 3181 3182 3183 3184 3182 3182 3183 3183 3184 3185 3184 3184 3183 3183 3183 3182 3179 3175 3172 3170 3167 3165 3161
3151 3150 3147 3151 3157 3159 3160 3162 3161 3159 3160 3156 3153 3164 3168 3167 3167 3167 3170 3174 3178 3180 3182 3182 3181 3180 3181 3182 3183 3184 3183 3182 3182 3182 3183 3182 3181 3178 3175 3172 3170 3167 3163 3160
3148 3148 3144 3147 3154 3155 3157 3155 3155 3154 3152 3153 3157 3159 3158 3167 3167 3167 3169 3173 3177 3178 3180 3179 3178 3178 3180 3182 3182 3181 3181 3180 3180 3181 3181 3180 3178 3176 3174 3172 3169 3166 3162 3158
3146 3145 3139 3138 3143 3148 3154 3154 3154 3152 3151 3153 3159 3155 3159 3162 3163 3165 3168 3172 3175 3175 3177 3177 3175 3178 3179 3180 3179 3178 3178 3178 3179 3180 3179 3178 3177 3176 3173 3170 3167 3164 3160 3156
3142 3141 3137 3141 3138 3143 3148 3150 3150 3151 3152 3155 3156 3163 3161 3154 3162 3162 3165 3168 3172 3173 3175 3175 3175 3175 3177 3178 3177 3176 3175 3176 3178 3178 3177 3177 3175 3173 3171 3168 3165 3162 3157 3153
3140 3139 3138 3138 3144 3144 3147 3149 3145 3150 3151 3151 3149 3155 3156 3156 3157 3161 3164 3166 3169 3171 3172 3172 3172 3172 3174 3174 3174 3174 3174 3175 3176 3176 3176 3175 3173 3170 3168 3165 3162 3158 3154 3150
3136 3138 3139 3139 3143 3146 3144 3145 3146 3147 3150 3153 3154 3155 3157 3156 3158 3162 3163 3163 3166 3166 3167 3166 3169 3170 3170 3170 3171 3171 3170 3172 3173 3174 3173 3171 3169 3167 3164 3161 3158 3154 3150 3146
3132 3136 3137 3136 3140 3139 3139 3142 3144 3145 3148 3151 3152 3153 3154 3155 3158 3158 3159 3160 3162 3161 3161 3162 3163 3167 3168 3167 3166 3167 3168 3169 3170 3171 3170 3169 3166 3164 3160 3157 3154 3151 3147 3143
3127 3133 3133 3132 3134 3135 3137 3140 3142 3143 3147 3148 3150 3152 3153 3151 3155 3155 3156 3156 3157 3156 3156 3161 3162 3161 3162 3162 3162 3162 3162 3163 3164 3165 3166 3164 3163 3160 3156 3152 3149 3145 3142 3138
3123 3128 3131 3127 3131 3127 3133 3133 3136 3142 3144 3146 3147 3149 3152 3152 3155 3151 3153 3154 3154 3153 3153 3155 3154 3157 3158 3159 3160 3160 3158 3159 3162 3160 3159 3160 3157 3154 3149 3145 3141 3138 3135 3131
3120 3122 3124 3128 3125 3129 3133 3140 3135 3140 3146 3143 3146 3148 3150 3151 3152 3149 3150 3150 3150 3149 3150 3152 3155 3158 3157 3155 3163 3160 3150 3153 3156 3158 3155 3153 3150 3146 3142 3139 3135 3132 3129 3125
3120 3123 3121 3121 3121 3127 3132 3135 3135 3135 3138 3141 3142 3144 3143 3145 3146 3147 3147 3147 3146 3145 3146 3148 3151 3153 3152 3151 3154 3153 3154 3155 3154 3154 3151 3147 3144 3140 3137 3134 3131 3127 3124 3120
3120 3122 3120 3121 3120 3128 3135 3130 3133 3133 3135 3138 3138 3138 3140 3142 3142 3143 3144 3144 3144 3143 3144 3146 3148 3148 3148 3149 3150 3151 3151 3152 3151 3149 3145 3142 3139 3135 3132 3128 3125 3121 3117 3114
3119 3120 3128 3123 3115 3123 3129 3129 3127 3130 3135 3137 3136 3135 3136 3138 3140 3141 3141 3142 3142 3142 3142 3143 3142 3142 3145 3147 3147 3148 3149 3148 3146 3143 3139 3136 3133 3129 3125 3123 3120 3116 3112 3109
3118 3118 3124 3127 3124 3124 3126 3127 3126 3130 3133 3136 3137 3135 3134 3136 3139 3140 3141 3141 3140 3140 3141 3142 3142 3142 3144 3146 3147 3146 3145 3144 3142 3138 3134 3131 3127 3124 3121 3118 3115 3110 3107 3103
3116 3115 3119 3123 3123 3122 3123 3124 3127 3130 3132 3133 3136 3136 3135 3136 3137 3137 3138 3139 3139 3140 3140 3140 3141 3143 3144 3145 3144 3143 3142 3140 3137 3132 3128 3126 3123 3120 3116 3112 3108 3105 3102 3098